Погода в Пуэрто-Калеро

Испания     28°55′11″N   13°42′23″W
В апреле 2022 года жителям России запретили посещать сайт meteo.paraplan.net по решению Генеральной прокуратуры. Аудитория сайта уменьшилась в 10 раз. Владельцы сайта не видят смысла в поддержке погодного сервера в таких условиях. Сайт будет закрыт в октябре.
темп.,
°C
ветер,
м/с
пор.,
м/с
влажн.,
%
обл.,
%
осадки,
мм/ч
давл.,
гПа
погр.,
м
29 сентября, чт
чт2901:00+21ссв810730 0.0 1020888
04:00+21ссв8107520 0.0 1018807
07:00+21ссв8107240 0.0 1018718
10:00+22ссв9106630 0.1 10191098
13:00+23ссв89627 0.1 10181133
16:00+23ссв997167 0.1 10171028
19:00+22с10116913 0.1 10171096
22:00+21с9117129 0.0 10181201
30 сентября, пт
пт3001:00+21с9117281 0.1 10171056
04:00+21с1012780 0.1 1015883
07:00+21с9127918 0.2 1015759
10:00+22с10127416 0.1 10161039
13:00+23с10117097 0.1 10161005
16:00+23с111270100 0.1 10151047
19:00+22ссв111272100 0.1 10151123
22:00+21ссв11137327 0.0 10171133
1 октября, сб
сб101:00+21ссв11137134 0.0 10161029
04:00+20ссв111373100 0.0 1015932
07:00+20ссв101272100 0.0 1016808
10:00+21ссв12136989 0.0 1017973
13:00+23ссв12136499 0.0 10171017
16:00+23св11116373 0.0 10151006
19:00+22ссв910705 0.0 1015742
22:00+21ссв1011795 0.0 1016590
2 октября, вс
вс201:00+21св9128116 0.0 1015534
04:00+21св710805 0.0 1014439
07:00+20св57820 0.0 1015327
10:00+22св66720 0.0 1016478
13:00+25св44583 0.0 1016601
16:00+26св34555 0.0 1015731
19:00+25ссв55640 0.0 1015323
22:00+22ссв68743 0.0 1017295
3 октября, пн
пн301:00+22св56760 0.0 1017248
04:00+22всв23795 0.0 101675
07:00+21св45800 0.0 1017127
10:00+24св45580 0.0 1018185
13:00+28св44420 0.0 1018492
16:00+28св44440 0.0 1017500
19:00+25ссв66590 0.0 1017305
22:00+23ссв69710 0.0 1019293